Weather in Cotuí

Dominican Republic     19°03′15″N   70°08′59″W
temp.,
°C
wind,
m/s
gust,
m/s
humid.,
%
clouds,
%
prec.,
mm/h
press.,
hPa
HPBL,
m
27 november, sat
sat2723:00+21sw119478 0.1 101518
02:00+21ssw119460 0.1 101418
05:00+19sw00978 0.0 101411
08:00+20ssw11936 0.0 101652
11:00+27ene116231 0.0 10161079
14:00+29ene2253100 0.1 10131527
17:00+24e018624 1.4 101347
20:00+21ssw019290 1.7 101512
28 november, sun
sun2823:00+21sw1193100 0.1 101623
02:00+20wsw119629 0.1 101514
05:00+20sw119489 0.0 101516
08:00+21sw119170 0.0 101656
11:00+28e125651 0.0 10161192
14:00+30e224573 0.0 10131730
17:00+27ene366156 0.0 1013454
20:00+22wsw119040 0.4 101613
29 november, mon
mon2923:00+21sw119348 0.2 101612
02:00+20ssw119786 0.3 101513
05:00+19sw119810 0.0 101415
08:00+20ssw11946 0.0 101656
11:00+28ese22595 0.0 10151001
14:00+31e22425 0.0 10121674
17:00+29e125511 0.0 101268
20:00+22sse018511 0.0 101517
30 november, tue
tue3023:00+21wsw119411 0.0 101614
02:00+20w11958 0.0 101514
05:00+19wsw119613 0.0 101513
08:00+21sw018717 0.0 101667
11:00+28ne116267 0.0 1017967
14:00+31e224525 0.0 10131691
17:00+28e355765 0.0 1013397
20:00+21sw118883 0.0 101614
1 december, wed
wed123:00+21sw1193100 0.0 101712
02:00+20wsw1195100 0.0 101616
05:00+21sw1192100 0.0 101621
08:00+21sw1186100 0.0 101753
11:00+29ene1260100 0.0 10181123
14:00+30e125469 0.1 10151368
17:00+28e256597 0.1 1014368
20:00+21sw119775 1.5 101712